Location: Tauranga
(37.6860°S, 176.1670°E)
Time: 14:19:06
(UTC+13:00)

Meteor 2-21 - Pass Details

Date: 24 January 2019
Orbit: 934 x 966 km, 82.5° (Epoch: 13 October)

Event Time Altitude Azimuth Distance (km) Brightness Sun altitude
Exits shadow 23:43:01 68° 93° (E) 1,012 4.4 -28.0°
Drops below altitude 10° 23:48:58 10° 167° (SSE) 2,676 7.4 -28.6°
Sets 23:51:29 0° 169° (S) 3,629 8.2 -28.8°
